Location: Colle Santa Colomba
(42.0333°N, 12.5667°E)
Time: 03:53:22
(UTC+00:00)

Cosmos 2251 Rocket - Pass Details

Date: 25 October 2021
Orbit: 765 x 791 km, 74.0° (Epoch: 28 November)

Event Time Altitude Azimuth Distance (km) Brightness Sun altitude
Rises 17:38:11 0° 341° (NNW) 3,248 7.0 -16.4°
Reaches altitude 10° 17:40:35 10° 344° (NNW) 2,315 6.2 -16.9°
Maximum altitude 17:45:50 74° 69° (ENE) 799 3.4 -17.9°
Drops below altitude 10° 17:51:02 10° 155° (SSE) 2,295 5.7 -18.8°
Enters shadow 17:52:12 - 156° (SSE) 2,747 6.1 -19.0°
